TimeEDT,TemperatureF,Dew PointF,Humidity,Sea Level PressureIn,VisibilityMPH,Wind Direction,Wind SpeedMPH,Gust SpeedMPH,PrecipitationIn,Events,Conditions,WindDirDegrees,DateUTC
12:37 AM,55.4,55.4,100,29.80,3.0,West,5.8,-,0.25,Rain,Light Rain,280,2013-04-24 04:37:00
12:47 AM,55.4,55.4,100,29.80,3.0,WSW,4.6,-,0.27,Rain,Light Rain,250,2013-04-24 04:47:00
12:54 AM,55.9,55.9,100,29.78,4.0,West,3.5,-,0.27,Rain,Light Rain,260,2013-04-24 04:54:00
1:14 AM,55.4,55.4,100,29.79,3.0,West,5.8,-,0.01,Rain,Light Rain,260,2013-04-24 05:14:00
1:25 AM,51.8,51.8,100,29.80,4.0,NW,13.8,17.3,0.02,Rain,Rain,310,2013-04-24 05:25:00
1:54 AM,48.0,46.9,96,29.81,5.0,WNW,9.2,-,0.05,Rain,Light Rain,300,2013-04-24 05:54:00
2:14 AM,46.4,46.4,100,29.82,2.5,NW,11.5,-,0.04,Rain,Heavy Rain,310,2013-04-24 06:14:00
2:25 AM,46.4,44.6,93,29.82,4.0,NW,13.8,-,0.07,Rain,Rain,320,2013-04-24 06:25:00
2:54 AM,44.1,43.0,96,29.82,5.0,NW,12.7,-,0.10,Rain,Light Rain,320,2013-04-24 06:54:00
3:02 AM,44.6,42.8,93,29.84,9.0,NW,11.5,-,0.00,Rain,Light Rain,310,2013-04-24 07:02:00
3:54 AM,42.1,41.0,96,29.85,4.0,NW,9.2,-,0.07,Rain,Heavy Rain,310,2013-04-24 07:54:00
4:54 AM,39.9,39.0,97,29.85,4.0,NW,12.7,-,0.13,Rain,Heavy Rain,320,2013-04-24 08:54:00
5:54 AM,39.9,37.9,93,29.86,6.0,NW,10.4,-,0.09,Rain,Rain,320,2013-04-24 09:54:00
6:54 AM,39.0,37.0,93,29.86,7.0,NNW,17.3,21.9,0.11,Rain,Rain,330,2013-04-24 10:54:00
7:31 AM,37.4,37.4,100,29.90,5.0,NW,13.8,19.6,0.07,Rain,Rain,310,2013-04-24 11:31:00
7:54 AM,37.9,37.0,97,29.89,4.0,NW,10.4,-,0.12,Rain,Rain,320,2013-04-24 11:54:00
8:51 AM,37.4,35.6,93,29.88,6.0,NNW,12.7,-,0.09,Rain,Light Rain,340,2013-04-24 12:51:00
8:54 AM,37.9,36.0,93,29.89,6.0,NNW,17.3,-,0.09,Rain,Light Rain,330,2013-04-24 12:54:00
9:07 AM,37.4,35.6,93,29.90,6.0,NNW,15.0,-,0.01,Rain,Light Rain,330,2013-04-24 13:07:00
9:27 AM,37.4,35.6,93,29.93,10.0,NNW,15.0,-,0.01,Rain,Light Rain,330,2013-04-24 13:27:00
9:54 AM,37.0,35.1,93,29.91,10.0,NNW,11.5,-,0.01,,Overcast,340,2013-04-24 13:54:00
10:46 AM,39.2,35.6,87,29.93,10.0,NW,17.3,-,N/A,,Overcast,320,2013-04-24 14:46:00
10:54 AM,39.0,35.1,86,29.94,10.0,NW,13.8,24.2,N/A,,Overcast,310,2013-04-24 14:54:00
11:20 AM,39.2,33.8,81,29.96,10.0,NW,19.6,27.6,N/A,,Overcast,310,2013-04-24 15:20:00
11:54 AM,37.9,34.0,86,29.99,7.0,NW,19.6,29.9,0.00,Rain,Light Rain,320,2013-04-24 15:54:00
12:15 PM,39.2,35.6,87,29.99,10.0,NW,17.3,-,0.00,Rain,Light Rain,320,2013-04-24 16:15:00
12:54 PM,39.9,35.1,83,30.04,10.0,NW,12.7,23.0,0.00,,Overcast,310,2013-04-24 16:54:00
1:54 PM,42.1,35.1,76,30.05,10.0,NW,17.3,-,N/A,,Overcast,320,2013-04-24 17:54:00
2:54 PM,43.0,35.1,74,30.08,10.0,WNW,12.7,-,N/A,,Overcast,290,2013-04-24 18:54:00
3:54 PM,43.0,37.9,82,30.09,8.0,WNW,13.8,-,0.00,Rain,Light Rain,290,2013-04-24 19:54:00
4:37 PM,44.6,35.6,71,30.08,10.0,WNW,13.8,19.6,0.00,,Mostly Cloudy,290,2013-04-24 20:37:00
4:54 PM,46.0,36.0,68,30.09,10.0,West,16.1,23.0,0.00,,Mostly Cloudy,280,2013-04-24 20:54:00
5:54 PM,45.0,33.1,63,30.12,10.0,West,15.0,20.7,N/A,,Mostly Cloudy,280,2013-04-24 21:54:00
6:54 PM,46.9,30.9,54,30.14,10.0,West,15.0,-,N/A,,Mostly Cloudy,280,2013-04-24 22:54:00
7:54 PM,45.0,30.9,58,30.15,10.0,West,11.5,-,N/A,,Mostly Cloudy,270,2013-04-24 23:54:00
8:54 PM,43.0,30.0,60,30.18,10.0,West,8.1,-,N/A,,Mostly Cloudy,260,2013-04-25 00:54:00
9:54 PM,42.1,32.0,67,30.21,10.0,WSW,8.1,-,N/A,,Mostly Cloudy,250,2013-04-25 01:54:00
10:54 PM,39.0,30.9,73,30.22,10.0,WSW,6.9,-,N/A,,Partly Cloudy,240,2013-04-25 02:54:00
11:54 PM,37.0,30.9,79,30.22,10.0,WSW,8.1,-,N/A,,Partly Cloudy,250,2013-04-25 03:54:00